Ponchatoula, LA (70454)

6:25 PM CST on February 14, 2016 (GMT -0600)
Wildoak Lane | | Change Station
CLOSE
Current Station
Personal Weather Station
Location: Ponchatoula, LA
Elevation: 52 ft
Nearby Weather Stations

Elev 52 ft 30.46 °N, 90.41 °W | Updated 5 minutes ago

Overcast
Overcast
61.3 °F
Feels Like 61.3 °F
N
3.2
Wind Variable Wind from SE

Today
High -- | Low -- °F
--% Chance of Precip.
Yesterday
High -- | Low -- °F
Precip. -- in
Pressure 30.05 in
Visibility 10.0 miles
Clouds Mostly Cloudy 3700 ft
Overcast 4400 ft
Dew Point 53 °F
Humidity 73%
Rainfall 0.00 in
Snow Depth Not available.
6:43 AM 5:48 PM
Waxing Crescent, 47% visible
METAR KHDC 150015Z AUTO 15009KT 10SM BKN037 OVC044 16/10 A3005 RMK AO2
Pressure 30.05 in
Visibility 10.0 miles
Clouds Mostly Cloudy 3700 ft
Overcast 4400 ft
Dew Point 53 °F
Humidity 73%
Rainfall 0.00 in
Snow Depth Not available.
6:43 AM 5:48 PM
Waxing Crescent, 47% visible
METAR KHDC 150015Z AUTO 15009KT 10SM BKN037 OVC044 16/10 A3005 RMK AO2

10-Day Weather Forecast

Almanac

Astronomy

Feb. 14, 2016 Rise Set
Actual Time
Civil Twilight
Nautical Twilight
Astronomical Twilight
Moon
Length of Visible Light
Length of Day
Tomorrow will be .
, % of the Moon is Illuminated

Today's Extremes

State Highs State Lows

Community

WunderPhotos

Upload Photos

1,892,944 photos uploaded!

WunderBlog® & News

Nearby

Air Quality

  Air Quality AQ Index Pollutant
Not available.

Snow Depth

Station Depth Elevation

Earthquake Activity

City Distance Mag. Time & Date
Minimum magnitude displayed is 2.5.

Coastal Water Temperatures

Place Temperature

Stations

Nearby Weather Stations

Station Location Temp. Windchill Dew Point Humidity Wind Precip. Elev Updated Type
                   

Watches & Warnings

There are currently no watches in effect.